Wind_Speed
25 26 27 29 31 31 29 29 31 36 36 31 24 13 3 2 2 8 23 26 12 7 5 4 3 4 5 7 8 7 6 6 7 9 10 7 6 6 6 7 6 6 6 6 7 5 4 7 6 5 6 8 7 8 9 9 7 5 2 4 6 4 2 3 4 5 5 6 3 4 8 8 7 7 8 7 6 6 3 2 1 2 2 3 2 1 2
24 25 27 29 31 30 28 27 29 32 33 28 18 6 2 1 3 5 20 30 21 9 4 4 4 4 5 8 7 6 6 6 7 9 9 6 5 4 6 7 6 6 7 8 9 6 4 6 7 5 4 5 8 10 10 8 6 4 3 3 4 3 2 3 4 5 6 4 4 4 6 8 4 3 6 8 9 10 7 3 3 2 1 2 0 2 3
24 25 27 28 29 29 27 26 27 28 29 26 14 2 0 2 1 3 12 22 17 6 2 3 4 5 6 7 7 5 4 6 7 8 7 7 6 4 6 8 7 7 8 9 10 9 5 4 5 5 4 4 6 9 10 8 5 5 7 7 3 2 2 3 3 1 2 3 3 4 5 6 3 2 5 8 10 11 7 4 3 2 2 4 1 3 4
23 25 26 26 28 29 27 25 25 24 25 23 12 3 1 2 2 3 6 10 8 3 3 5 5 4 4 5 7 7 4 4 7 7 6 7 8 7 7 8 8 10 10 8 8 9 7 4 4 4 4 3 3 6 8 8 8 10 13 10 4 2 3 2 3 3 3 4 4 4 6 7 8 8 7 6 8 8 5 2 2 2 4 5 3 1 7
23 24 25 25 26 28 27 25 23 21 22 19 10 4 3 2 2 3 3 4 5 4 5 6 5 4 4 3 5 8 7 5 6 6 5 7 8 6 6 9 8 8 8 6 5 7 7 6 5 4 3 2 3 6 6 7 11 12 11 8 4 3 2 3 2 1 3 3 5 7 8 8 10 13 11 7 6 6 5 3 5 5 5 5 5 3 8
22 23 24 24 25 27 27 25 22 19 19 16 8 3 3 2 1 2 1 1 3 4 5 6 8 8 6 3 3 7 9 7 6 5 4 6 8 4 5 9 7 6 6 4 4 5 6 6 5 4 3 3 3 5 5 5 8 8 6 4 4 4 1 1 3 4 5 5 7 9 9 9 8 11 13 11 7 5 4 4 7 7 4 6 7 6 6
21 22 23 23 22 25 27 26 24 19 16 20 17 6 3 3 1 3 2 2 2 4 6 8 9 9 6 4 5 6 8 7 6 4 3 5 6 5 4 6 7 5 5 4 3 4 3 4 5 4 5 5 4 4 4 4 6 6 4 3 3 3 1 2 3 5 5 5 6 8 9 10 9 9 11 13 11 7 5 5 8 9 8 8 7 6 4
19 20 21 21 20 23 25 26 26 19 14 21 20 9 4 3 1 3 3 4 4 4 5 6 6 7 5 4 5 5 6 6 4 3 4 3 4 4 3 5 7 5 3 4 4 3 3 2 3 3 5 5 3 3 3 3 5 5 3 2 2 3 1 2 3 4 5 5 5 7 8 9 10 10 9 11 13 11 6 5 6 6 7 8 7 4 2
18 19 20 20 18 20 22 24 27 23 17 18 13 8 8 4 1 2 2 2 4 4 3 4 5 4 4 3 3 4 4 4 3 3 3 2 2 1 0 4 5 4 5 6 4 3 5 3 5 3 2 2 1 1 2 2 4 4 2 1 2 3 1 1 3 1 4 4 6 8 8 9 11 10 7 8 10 9 6 3 2 3 4 5 5 3 2
17 17 18 18 17 18 19 22 25 25 23 19 9 6 12 9 5 5 3 2 4 3 2 4 4 3 3 3 3 4 4 3 3 2 2 2 4 4 4 2 2 3 4 2 2 2 1 2 5 4 3 3 3 4 4 2 1 2 1 1 1 3 2 0 2 1 2 2 4 7 7 7 7 5 3 4 4 5 5 3 5 5 2 0 1 1 4
15 16 17 17 15 16 16 18 21 23 25 22 11 7 14 10 4 4 4 3 4 3 3 4 4 3 4 5 5 5 5 5 2 3 1 3 3 4 4 3 2 2 2 3 3 2 1 1 2 3 2 4 4 2 1 3 3 1 1 2 0 2 3 2 2 2 1 0 3 5 4 4 5 2 2 3 3 6 5 3 5 6 4 2 1 3 5
13 14 15 15 14 14 14 15 17 19 21 20 14 11 15 13 4 2 4 4 3 4 4 3 3 4 5 6 4 4 5 5 2 2 1 3 4 3 0 3 4 2 2 1 2 3 3 3 3 4 4 4 3 3 7 7 6 5 3 3 1 0 1 2 2 2 2 2 4 3 3 5 4 1 3 3 4 5 4 4 5 6 6 5 5 6 7
12 13 14 14 13 12 12 12 14 15 16 16 14 13 15 14 7 2 3 4 3 3 3 3 4 5 5 4 4 4 5 4 5 6 4 3 4 4 4 4 3 1 2 2 6 5 4 4 4 4 5 5 3 6 7 6 6 7 5 4 3 2 0 1 1 2 1 2 3 2 5 5 7 5 2 3 4 4 3 3 3 4 5 4 4 5 7
10 11 12 13 12 10 10 10 10 12 13 14 14 14 15 15 9 2 1 4 1 2 2 3 4 4 3 3 3 3 5 5 6 6 4 4 5 4 5 3 2 3 2 4 5 4 3 3 3 3 5 5 4 4 4 4 5 6 5 4 3 3 2 0 1 2 2 3 3 4 6 8 8 5 1 3 3 4 2 1 1 2 4 5 4 5 7
8 9 10 11 11 10 8 8 8 9 10 11 12 13 15 15 10 4 1 3 1 2 2 2 1 1 2 3 2 3 4 5 4 4 4 4 4 3 4 6 8 8 5 4 3 3 3 2 2 2 3 2 1 3 3 2 3 4 4 5 3 1 3 2 1 2 2 3 3 3 5 6 4 2 1 3 4 5 3 3 2 1 4 5 4 5 7
7 7 9 10 10 9 8 7 7 7 8 9 9 11 12 13 12 8 3 2 4 1 2 4 5 2 1 2 2 4 2 1 2 3 4 5 4 3 4 6 10 9 5 3 3 3 3 2 1 2 2 2 2 2 2 2 3 4 4 5 5 3 0 3 2 1 1 3 3 4 6 5 3 2 3 4 5 6 3 1 1 0 4 6 5 5 6
8 6 7 8 8 8 7 7 7 6 6 8 9 10 10 11 13 11 4 2 3 1 3 1 1 2 3 1 2 1 1 1 1 1 1 3 3 4 4 4 7 7 4 3 2 2 3 1 1 2 2 3 3 1 1 1 2 4 4 5 5 4 3 3 2 3 4 4 4 4 4 3 1 2 4 5 6 3 2 1 2 0 3 6 5 5 6
8 6 5 5 6 6 5 5 5 4 4 5 6 7 9 9 11 10 3 2 2 2 3 5 5 0 1 2 3 2 2 1 1 1 1 2 1 1 2 1 3 4 3 4 2 2 2 1 2 2 2 2 2 2 1 1 1 3 3 3 3 3 2 1 2 4 6 6 5 4 4 2 1 4 6 7 5 2 2 3 2 1 4 6 4 5 6
9 6 5 4 4 4 4 3 3 3 3 3 4 4 6 7 10 9 5 3 2 2 6 8 4 1 2 2 1 1 1 1 2 2 0 2 2 2 1 2 2 2 2 3 2 2 2 1 1 3 2 1 0 2 2 2 2 2 0 1 1 1 1 1 1 2 4 4 4 5 4 1 2 6 7 5 2 1 2 2 2 2 5 5 3 4 5
9 7 5 4 3 3 2 1 2 2 3 4 3 3 4 6 7 8 5 2 2 2 7 6 2 2 3 1 2 2 3 2 0 2 3 3 3 1 3 2 1 1 2 2 1 1 1 1 2 1 2 2 2 2 1 2 3 3 3 3 3 2 1 1 1 1 2 2 3 4 3 1 3 5 5 2 1 2 3 3 2 3 4 3 3 3 4
9 8 6 5 3 2 2 1 1 2 3 3 3 2 3 6 5 5 5 2 2 0 4 4 5 9 10 8 9 9 6 5 4 2 3 4 2 3 3 3 2 1 1 1 1 1 1 2 1 0 1 2 1 1 2 1 4 3 4 3 2 3 3 1 2 2 2 2 3 3 2 2 2 1 1 2 2 2 3 4 3 4 3 3 3 4 4
8 8 7 6 4 3 2 2 2 3 4 4 3 3 1 2 3 2 4 4 2 5 10 14 17 20 19 18 18 17 16 15 12 7 4 2 1 2 4 4 3 2 2 2 2 1 1 1 1 1 0 1 1 2 3 2 2 3 3 3 2 4 4 3 2 2 3 4 5 3 3 3 4 3 3 4 4 3 3 3 4 4 3 3 4 5 5
7 8 8 6 5 4 4 3 3 4 5 5 5 6 6 4 2 3 5 6 5 8 15 18 17 17 16 15 15 16 18 20 20 16 8 3 0 1 2 3 3 1 1 3 3 3 2 2 2 2 1 2 2 1 1 2 2 3 3 2 3 4 3 3 2 2 3 5 6 5 3 3 4 3 3 3 3 4 4 4 4 4 5 5 5 5 6
6 7 8 7 6 5 5 5 4 5 6 7 7 8 9 7 4 6 6 3 2 4 7 7 5 6 8 10 13 16 15 16 20 20 15 8 4 1 2 3 4 2 1 3 4 3 2 2 2 2 1 3 3 3 2 3 3 3 2 1 3 3 3 3 2 1 2 3 4 3 2 4 5 4 3 3 3 4 4 4 5 5 6 7 6 6 7
6 6 7 7 7 6 5 6 6 6 7 8 9 10 10 8 3 2 4 3 1 0 2 3 4 7 9 13 19 19 15 14 17 17 18 17 11 6 5 6 7 5 4 5 4 4 2 1 2 2 2 2 2 3 3 3 3 3 4 3 3 2 3 2 3 3 3 4 6 4 3 5 5 3 2 3 4 5 5 5 6 7 7 7 7 7 6
6 6 7 7 7 7 6 6 6 7 8 8 9 10 11 10 7 4 4 3 2 2 1 3 6 8 12 17 22 22 17 16 17 15 19 22 18 13 11 10 7 5 6 5 4 4 3 2 2 2 2 2 2 3 3 3 2 3 3 4 3 4 4 3 3 3 4 6 6 4 4 6 4 2 4 4 3 5 6 7 7 8 8 8 9 8 8
7 6 7 7 8 8 7 7 7 7 7 8 9 11 12 12 11 10 8 3 0 1 2 3 5 9 15 18 20 20 18 16 16 14 17 22 23 19 14 10 6 5 5 4 2 2 3 2 2 3 3 2 2 2 2 2 2 2 3 4 3 4 3 3 3 2 4 5 4 2 2 5 5 5 6 6 4 5 7 7 7 8 8 9 10 10 10
7 6 7 8 8 8 8 8 7 7 7 8 9 11 14 14 14 14 13 9 4 2 2 3 6 11 14 15 18 21 21 19 17 15 15 16 21 23 18 11 7 5 5 4 2 2 3 3 3 3 2 2 1 1 1 1 1 2 4 4 5 5 5 5 5 4 5 6 5 5 4 5 6 6 6 6 5 5 7 7 7 8 9 9 10 11 10
7 7 7 8 8 9 9 8 7 6 6 6 6 8 11 12 12 14 16 14 10 5 3 3 5 7 7 11 19 23 20 16 14 17 17 12 10 14 12 7 5 4 3 4 3 3 3 3 3 2 2 3 2 1 1 2 2 4 6 6 7 7 7 8 8 6 5 5 6 6 5 5 6 6 6 6 5 5 6 7 7 7 9 11 11 11 11
7 7 8 8 9 10 9 8 7 6 4 3 2 4 5 4 5 11 16 16 13 7 2 2 4 4 5 8 15 19 18 15 12 11 10 5 2 5 4 3 2 1 0 1 2 3 2 2 1 1 1 2 2 1 2 3 3 4 5 7 7 7 6 6 7 6 5 5 5 6 6 6 6 5 5 6 6 6 6 7 9 10 12 14 13 11 12
8 8 8 9 10 10 10 9 7 4 4 5 3 1 1 1 3 10 13 14 13 8 2 2 4 4 4 5 7 11 16 15 8 1 5 4 4 5 5 3 1 1 2 2 1 2 2 2 2 2 1 0 1 1 2 3 3 4 4 5 6 6 6 5 5 6 6 5 4 4 4 5 4 3 4 4 5 6 6 8 12 15 17 18 17 15 16
8 8 9 10 11 11 11 9 7 5 8 10 9 7 5 3 8 12 13 12 12 7 2 2 3 2 3 4 6 11 14 10 3 2 4 2 2 3 4 5 2 2 3 2 1 1 2 2 3 3 2 2 2 2 3 4 5 5 5 6 6 6 6 5 5 5 5 5 4 3 4 3 4 5 5 4 4 6 7 9 13 16 17 18 18 18 18
8 8 9 10 11 11 11 9 7 7 8 11 15 16 12 8 12 15 12 10 9 6 3 2 2 2 2 3 6 10 9 4 1 3 3 1 2 1 1 1 1 2 3 3 1 2 2 2 2 2 3 3 3 2 4 6 6 5 5 6 6 5 5 5 4 4 3 3 4 4 4 5 5 5 3 2 4 8 10 12 13 13 13 13 13 14 15
8 8 8 8 9 9 9 6 4 5 6 10 13 12 6 8 15 17 15 10 5 3 2 1 2 3 3 2 4 5 3 1 2 2 2 2 0 2 1 1 1 1 2 2 2 1 2 2 2 2 2 2 2 3 4 5 5 5 5 4 4 5 3 1 1 2 3 3 3 4 5 6 4 2 1 2 6 9 12 12 11 10 10 10 10 11 12
7 7 6 6 7 7 5 2 2 3 5 8 10 4 2 6 11 16 20 15 4 1 2 2 2 3 2 3 4 3 3 3 1 0 1 2 2 2 2 1 0 1 2 2 2 2 3 3 3 2 2 3 3 4 5 5 5 5 4 4 4 4 4 1 2 4 4 3 3 3 3 2 3 3 2 4 5 7 9 9 9 10 10 10 11 11 11
6 5 3 4 5 5 3 1 4 5 4 5 4 1 3 3 5 13 22 18 6 1 1 1 1 3 2 2 4 2 3 2 1 0 1 2 1 0 2 2 1 2 1 1 2 3 3 3 3 2 3 3 4 5 5 6 7 6 5 4 4 4 4 4 4 4 3 3 3 3 2 2 4 4 4 4 5 6 7 8 8 10 11 11 11 11 11
4 3 2 3 4 3 2 3 6 6 4 3 1 1 4 3 1 6 13 11 6 4 2 1 3 3 2 2 3 2 2 0 0 1 1 2 1 0 1 1 1 2 0 1 3 3 2 2 2 2 3 4 4 4 4 6 7 6 5 5 4 5 5 4 4 2 2 4 4 4 3 2 4 4 4 4 5 5 6 8 8 9 10 11 11 12 13
3 2 0 1 2 1 2 3 4 3 3 4 3 2 2 2 2 2 4 4 3 4 3 1 4 3 1 2 3 1 1 1 1 1 1 2 1 1 0 1 1 2 1 2 2 2 2 1 2 2 3 3 3 4 4 5 5 5 5 6 5 5 4 4 4 3 2 3 4 3 3 3 3 4 5 5 5 5 6 7 9 9 9 10 12 14 16
1 1 1 1 1 1 2 3 3 2 3 4 3 1 0 2 1 1 2 2 2 2 2 2 4 3 3 4 4 1 2 1 1 1 2 2 0 1 1 0 0 1 1 2 2 2 1 2 2 2 3 3 3 4 5 5 5 5 5 6 5 5 5 5 5 5 5 5 5 4 4 4 4 5 5 4 4 5 6 7 9 10 10 12 15 16 15
2 2 2 2 2 1 4 5 2 2 2 2 2 1 1 1 1 2 2 2 2 2 2 3 3 3 4 5 4 2 3 4 2 2 3 2 0 1 2 1 0 0 1 3 2 2 1 1 1 2 3 4 4 5 5 5 5 5 5 5 5 7 7 6 5 5 5 4 5 5 4 5 6 5 4 4 4 4 5 7 9 12 12 15 18 18 16
2 2 2 3 5 8 10 7 4 3 2 1 1 1 1 1 2 2 1 1 2 2 3 3 1 2 3 3 3 3 4 4 2 1 1 1 0 1 1 1 1 1 1 3 2 1 1 1 1 3 4 4 5 5 5 5 5 5 5 5 6 6 7 6 4 3 2 1 3 3 4 5 8 8 7 6 6 5 6 7 10 13 13 15 19 20 20
4 3 6 10 12 12 8 4 3 2 1 0 1 1 1 2 2 1 1 1 1 1 2 3 2 2 4 3 2 2 2 2 1 1 0 1 1 1 1 1 1 0 3 3 1 0 0 1 2 4 5 4 5 6 5 5 5 6 6 6 6 7 7 6 5 3 2 2 3 4 3 3 5 9 9 8 7 7 7 8 11 13 14 16 20 21 21
6 7 8 9 7 4 1 1 2 1 1 1 0 1 2 2 1 0 1 2 2 1 0 1 1 1 2 2 1 1 1 2 2 1 0 1 0 0 0 0 0 1 3 2 1 1 1 3 3 5 4 3 5 5 5 5 5 6 6 7 9 10 9 7 5 3 2 2 2 1 1 3 3 5 7 7 7 7 7 9 11 13 15 17 20 21 21
3 4 3 2 1 2 1 1 1 1 1 0 1 1 2 2 1 1 1 2 2 1 2 2 1 0 2 2 1 1 1 0 1 1 0 1 0 0 0 1 2 2 1 0 0 1 2 3 3 4 3 3 3 4 5 5 6 5 5 6 9 10 9 7 4 2 1 2 2 2 2 4 5 3 4 6 5 5 6 9 11 13 15 16 18 19 22
0 1 1 2 2 1 1 0 1 1 2 2 2 2 1 2 1 2 2 3 2 3 4 3 3 2 3 1 1 1 1 0 1 0 0 0 1 1 2 2 2 1 1 1 1 1 2 3 3 2 1 4 2 2 4 5 6 6 5 5 6 7 7 6 4 4 4 4 3 1 1 3 5 4 3 6 6 4 5 8 10 12 14 15 16 18 21
0 1 2 1 2 2 1 0 1 2 1 1 2 2 1 3 4 4 3 2 3 4 6 4 3 3 3 1 0 0 1 1 1 0 0 1 0 2 2 1 1 1 1 1 2 2 3 4 4 3 3 4 3 4 4 5 5 5 5 6 6 6 7 7 6 6 6 5 2 1 0 3 5 5 2 5 6 5 5 7 9 12 13 14 16 17 19
1 1 2 1 1 2 1 2 3 2 2 2 3 4 3 3 3 3 3 3 4 5 5 4 2 2 2 2 1 1 0 1 1 0 0 1 1 2 1 1 0 1 1 1 3 4 4 4 4 4 4 5 5 5 5 5 5 5 6 6 6 6 7 6 6 6 6 5 2 1 1 3 6 6 3 2 6 5 4 5 8 11 12 13 15 17 18
1 1 1 1 1 2 3 3 2 1 1 2 2 2 2 0 1 3 4 4 3 4 4 2 1 1 1 0 2 1 0 1 0 1 0 1 0 1 2 1 2 1 1 2 4 4 4 4 4 5 5 4 4 5 5 5 5 5 6 6 6 6 6 6 7 8 8 6 3 2 1 3 6 6 5 3 5 6 4 4 7 9 11 13 15 16 16
1 0 1 1 1 3 4 3 3 3 3 3 3 3 2 2 4 5 4 3 2 3 4 2 1 0 2 1 1 1 0 0 0 0 1 1 1 0 1 1 2 3 2 3 4 4 4 4 4 4 4 4 5 5 5 5 5 5 6 7 7 8 9 9 9 10 9 6 4 3 2 3 5 7 7 4 4 6 5 3 5 9 11 13 14 15 16
2 1 1 2 2 3 4 3 3 4 4 3 3 3 3 3 4 4 2 2 2 3 2 1 1 1 1 1 2 1 1 1 1 1 1 0 1 1 1 2 3 4 4 4 4 5 5 4 3 4 5 5 3 3 3 4 4 5 7 9 10 11 12 13 13 11 9 8 6 3 1 2 5 9 8 4 2 5 4 2 4 7 10 12 14 15 15
2 1 2 3 4 4 3 2 2 4 4 4 4 4 3 2 3 4 2 1 2 3 3 1 1 1 2 2 1 0 1 0 1 1 1 1 1 1 1 3 4 4 4 5 5 5 5 4 3 3 3 3 2 2 3 4 5 6 8 12 12 12 14 15 15 12 10 9 7 4 2 2 4 8 7 2 6 5 1 1 3 6 8 11 12 14 15
2 2 3 3 4 5 4 3 3 4 3 3 3 3 2 2 4 4 0 3 3 1 1 1 0 2 2 0 1 0 1 1 1 1 1 1 1 2 3 4 5 4 4 5 5 4 4 3 3 3 4 5 5 3 3 4 6 7 9 11 12 12 14 15 15 14 12 11 9 7 4 2 3 9 10 9 9 5 1 1 3 5 8 9 11 13 15
Wind_Direction
359 2 4 5 5 5 4 5 5 2 2 4 3 6 34 41 327 332 359 14 43 86 35 359 36 54 79 78 59 55 53 34 32 25 19 24 9 12 28 21 29 30 20 39 38 29 51 47 58 86 61 41 23 5 12 17 25 40 25 337 338 354 35 354 311 285 279 266 226 88 60 59 62 36 10 9 6 355 322 257 319 359 353 358 348 220 228
1 4 7 7 6 5 5 5 7 6 4 1 0 19 89 331 257 306 8 29 50 67 31 29 39 26 62 76 62 55 50 35 40 36 25 15 6 22 28 20 28 25 20 44 44 29 53 54 46 62 61 33 15 10 12 19 29 37 16 353 343 349 26 34 1 334 326 340 11 28 33 38 42 8 2 354 349 354 343 326 37 44 38 46 350 232 278
3 6 9 9 7 6 6 5 8 9 5 2 6 52 168 344 262 267 359 26 46 68 45 58 59 32 44 63 58 54 42 25 34 42 34 22 19 32 33 27 32 28 31 45 38 32 56 61 40 48 49 30 16 10 9 15 34 50 40 27 24 41 40 73 90 49 302 320 345 322 326 349 343 330 1 347 348 4 359 337 20 37 347 359 289 229 300
4 8 11 12 9 7 7 6 10 14 9 5 12 47 83 32 27 317 336 10 33 47 29 54 66 34 32 56 46 44 49 24 19 32 36 24 28 41 36 28 32 30 30 39 31 25 40 58 52 45 34 24 6 355 3 23 37 44 41 29 27 74 43 50 117 154 207 232 259 289 309 319 316 321 346 354 345 355 6 356 343 325 335 325 252 214 343
6 9 12 14 12 10 10 9 11 19 15 9 16 47 55 71 37 4 337 348 14 21 21 41 53 31 36 54 32 39 50 29 3 14 32 28 28 39 32 28 39 38 30 36 25 12 28 44 41 37 34 20 347 346 4 38 44 45 40 25 40 76 24 358 19 285 258 270 295 316 323 318 315 318 326 342 344 347 8 353 300 317 342 297 267 3 354
8 10 14 17 14 12 15 14 13 21 25 26 43 64 32 60 49 343 1 7 17 29 36 48 48 36 38 44 36 48 49 33 16 13 25 33 28 30 27 19 29 50 52 58 28 7 21 23 8 12 20 4 0 355 355 29 45 54 47 26 69 92 293 320 13 332 314 327 330 329 323 312 312 314 314 321 328 327 332 307 295 307 297 261 280 329 333
8 10 14 19 17 15 18 20 19 23 39 53 63 62 10 43 13 328 0 37 28 49 57 60 52 35 32 31 28 50 53 38 30 19 20 29 22 40 46 358 352 24 61 89 63 30 45 18 343 354 8 1 13 7 343 356 23 43 48 31 79 96 298 318 2 333 318 331 325 317 314 310 311 311 308 312 313 304 295 287 289 290 273 268 297 325 328
8 9 15 19 20 17 17 22 24 26 48 62 62 50 16 49 25 331 358 4 17 52 50 60 62 32 27 35 15 36 59 40 25 32 50 47 4 28 46 333 328 357 51 85 73 52 81 59 322 353 13 358 4 14 346 332 346 0 19 17 68 93 289 311 11 348 316 322 324 314 313 312 311 312 312 310 307 304 295 273 277 287 287 303 336 346 325
9 11 16 20 23 20 17 23 26 29 48 62 60 33 21 36 14 13 65 13 20 56 43 55 81 38 14 44 19 23 56 45 27 17 34 117 139 48 280 292 309 347 33 55 62 40 49 18 319 330 2 320 277 301 307 326 343 339 337 7 69 105 217 323 57 31 295 319 339 322 317 317 309 304 305 299 295 300 298 284 323 331 297 316 357 3 311
11 13 18 20 23 23 20 23 26 32 46 56 60 19 16 19 1 16 80 94 15 50 63 45 69 43 2 34 32 26 35 38 65 44 333 219 188 207 208 218 299 346 6 18 178 170 70 332 300 297 283 268 249 248 268 292 342 266 245 75 106 138 141 86 106 151 265 325 334 320 328 329 298 278 301 312 310 329 334 17 33 7 329 85 75 314 325
13 16 20 21 23 25 23 25 28 33 42 48 54 30 17 15 342 354 62 83 0 25 74 46 52 54 24 25 29 27 12 358 55 117 277 288 272 240 200 156 91 23 314 245 202 177 148 192 287 311 309 280 265 263 330 28 37 349 136 105 188 159 144 180 172 146 189 149 356 338 333 297 263 222 39 3 31 30 14 49 43 10 10 44 9 332 344
13 16 20 22 24 26 25 28 31 38 43 44 48 42 24 17 1 0 71 90 9 12 60 49 47 69 44 25 20 4 342 327 346 85 59 331 330 330 55 92 75 43 280 222 78 50 47 33 346 339 335 300 286 52 50 43 27 14 54 92 95 138 176 225 177 151 190 124 46 348 261 248 268 21 40 6 36 50 61 91 61 24 17 10 354 350 349
13 15 19 22 25 27 26 27 31 38 44 43 44 43 28 22 31 49 88 95 38 14 82 62 24 52 54 22 0 340 332 343 12 30 32 343 324 348 31 74 98 272 267 91 68 55 48 25 356 339 335 335 14 43 40 40 21 3 19 57 77 95 143 260 202 196 211 110 114 223 247 282 306 313 339 15 16 21 54 86 45 17 9 356 344 340 342
13 16 18 20 24 28 26 25 27 31 38 41 43 44 34 29 36 40 79 89 47 290 112 79 8 23 30 339 341 358 354 13 23 12 4 332 319 357 40 44 358 327 355 73 65 53 60 40 15 356 343 359 24 359 355 25 11 352 11 43 67 105 130 296 246 213 196 167 191 244 294 303 297 291 345 45 4 342 352 222 271 355 357 347 345 341 342
10 17 21 21 23 27 26 22 20 21 30 38 43 46 39 30 31 32 45 104 109 318 27 126 205 52 15 320 4 54 11 4 8 343 336 331 326 17 40 18 12 17 36 72 69 57 73 69 49 16 339 8 39 305 320 3 331 330 22 30 24 101 175 176 184 202 178 187 228 273 285 278 257 238 1 22 348 319 299 239 229 358 340 330 341 344 339
3 12 20 23 23 25 25 21 15 15 24 34 40 46 41 30 29 29 16 110 107 41 291 212 195 146 73 312 16 79 91 344 353 346 343 334 327 353 12 18 31 38 48 63 57 70 81 85 132 152 216 197 171 263 301 351 313 319 8 11 358 345 203 151 163 217 171 177 214 236 246 248 227 248 310 343 324 312 313 248 222 341 318 315 329 334 332
358 4 14 22 23 25 26 19 11 7 15 26 30 37 44 37 25 21 24 89 87 234 254 299 74 89 83 19 333 40 159 194 76 89 283 293 310 341 345 3 32 38 51 65 46 59 86 123 143 134 230 209 146 176 274 19 314 310 338 357 357 1 32 88 166 231 229 221 228 235 245 248 229 279 310 311 303 334 38 259 252 320 305 304 316 323 321
354 356 2 15 23 26 26 17 8 0 1 17 22 28 45 41 16 11 38 79 37 261 283 9 18 31 155 180 214 214 195 166 108 143 244 276 271 292 312 355 24 13 35 80 82 75 99 185 175 141 225 246 118 134 218 128 241 279 316 351 348 351 7 105 192 234 239 232 235 255 261 251 331 324 309 299 304 16 114 228 242 279 282 286 309 326 321
348 347 348 1 15 23 25 10 359 347 332 349 7 20 44 39 16 16 43 78 74 251 296 331 347 267 319 331 237 263 302 216 151 155 277 320 269 244 357 39 34 355 27 75 95 110 113 250 244 133 159 268 117 153 181 180 208 230 57 37 317 329 295 235 177 244 256 233 232 259 261 236 359 324 306 293 280 206 216 239 235 236 260 276 307 327 324
345 341 337 342 349 9 20 356 328 315 303 321 341 356 34 32 14 14 29 64 103 276 287 295 289 290 325 329 214 285 334 338 176 147 159 225 252 39 41 5 316 354 34 65 75 122 137 217 263 131 152 216 202 154 179 248 244 201 152 174 206 180 188 258 217 222 257 248 244 252 254 304 358 344 328 317 202 237 289 321 294 264 285 312 315 315 318
341 337 333 333 326 328 346 316 294 290 285 301 313 319 40 46 31 8 3 27 114 220 281 288 301 302 297 280 267 267 255 240 243 207 178 213 224 98 116 220 218 133 142 148 145 214 189 175 209 198 158 200 191 152 170 248 290 246 166 157 204 184 166 200 231 199 160 207 232 220 211 261 306 342 276 267 271 285 326 344 322 307 321 326 315 307 300
337 335 331 328 317 304 301 277 261 266 264 267 270 254 260 55 67 28 331 311 238 237 269 286 294 294 289 281 274 268 256 251 253 241 194 191 236 142 157 182 181 171 171 133 123 219 228 145 171 197 198 201 228 219 186 169 284 262 188 147 207 212 185 169 197 212 197 215 238 239 220 244 259 242 237 266 292 314 345 349 320 308 306 309 311 302 291
330 330 327 325 317 305 295 274 258 255 252 251 251 246 248 262 316 344 315 297 274 263 272 281 290 292 285 274 270 269 262 258 258 248 220 166 59 251 165 153 165 172 136 139 151 174 178 170 165 156 183 202 183 196 220 201 214 223 204 190 218 210 170 131 149 251 267 257 258 258 252 275 290 281 268 282 297 318 344 342 315 302 302 302 298 287 285
321 324 323 322 317 309 303 291 277 262 253 247 244 250 254 256 290 336 330 316 330 306 291 288 291 281 272 279 297 299 279 261 260 250 226 190 160 260 269 191 169 132 162 188 163 122 133 176 143 122 202 216 180 168 212 236 223 196 184 247 259 211 156 137 171 249 303 285 262 231 231 286 293 289 292 304 307 317 333 326 307 301 300 296 291 287 286
312 316 317 316 313 310 307 302 290 272 259 247 240 248 255 246 235 318 314 288 230 59 322 307 276 275 292 304 305 302 290 285 285 262 223 199 185 182 194 187 173 165 177 178 135 99 112 161 126 138 209 221 192 185 197 216 222 188 180 219 237 184 147 166 211 207 208 247 253 244 257 273 265 253 290 313 313 312 315 310 301 298 295 292 293 292 288
304 307 310 309 308 307 304 304 300 286 269 257 245 244 248 241 220 209 240 268 257 205 254 279 265 287 318 315 301 297 296 293 289 262 220 208 205 199 186 172 160 146 138 131 120 124 141 148 146 174 211 211 180 187 196 196 184 168 200 227 199 147 141 175 199 212 249 265 268 282 303 298 282 278 296 294 286 295 303 302 297 296 294 292 292 289 285
295 299 304 304 303 304 302 301 301 294 280 271 262 251 244 237 225 214 214 224 197 206 258 261 268 299 313 304 297 307 315 304 285 261 228 213 207 201 187 165 149 137 123 109 89 119 128 146 185 187 205 207 178 189 210 197 156 164 230 241 183 155 182 194 169 210 261 254 234 218 272 284 277 273 278 275 273 290 296 293 291 293 296 296 296 292 286
289 291 296 299 300 300 298 298 298 296 289 281 273 263 256 247 233 218 210 208 211 233 246 251 285 305 307 301 302 309 311 306 291 266 242 220 203 198 192 175 159 158 147 138 140 142 150 181 197 193 194 189 188 227 208 148 136 229 238 221 184 183 195 182 174 210 236 227 212 197 208 246 259 256 256 261 271 282 281 278 282 289 292 295 294 290 288
288 284 287 296 300 299 299 299 296 292 286 282 283 282 276 264 241 219 209 206 215 239 280 278 279 291 295 301 306 306 306 310 291 258 246 241 213 197 193 180 166 166 156 145 148 164 178 181 181 188 175 162 173 223 195 154 207 242 230 209 197 194 185 179 188 214 235 231 217 201 200 231 248 247 245 252 260 265 267 273 279 282 286 289 287 282 281
287 280 285 295 299 300 301 295 288 287 280 266 286 305 300 290 226 203 197 199 210 226 284 300 278 294 297 290 295 297 300 308 298 255 229 221 159 115 90 52 43 67 139 187 161 156 167 166 162 174 169 169 185 210 196 193 228 249 232 209 198 195 193 194 196 201 221 230 212 192 204 230 243 245 243 246 253 262 273 284 287 287 291 291 288 284 284
285 279 284 294 300 302 299 288 280 275 237 208 180 154 328 9 162 180 187 199 214 223 263 281 261 296 303 260 260 285 292 293 292 201 127 120 112 115 133 182 218 150 201 224 163 140 151 155 163 157 125 280 258 244 212 215 253 267 239 206 195 196 203 212 209 204 215 221 202 196 225 235 239 257 251 236 249 265 275 284 286 289 294 295 291 287 285
286 282 286 297 303 303 296 286 274 246 223 216 217 234 250 198 164 171 182 198 209 210 233 288 267 300 308 263 270 292 290 280 267 100 101 100 79 115 167 192 187 144 141 121 89 200 177 158 175 181 166 174 208 239 232 232 249 253 225 205 207 207 201 208 216 215 215 204 190 224 275 262 233 240 242 234 261 280 283 284 286 288 291 291 288 283 280
288 286 292 300 305 303 297 289 269 240 236 244 254 263 261 220 183 176 176 186 199 203 208 259 267 272 278 283 295 297 291 280 10 30 20 11 35 69 142 144 87 114 131 127 154 224 180 147 172 190 172 166 177 219 240 236 236 230 207 200 204 197 190 203 213 213 224 212 183 195 252 258 239 230 230 256 292 296 294 292 290 290 290 289 286 285 285
290 295 301 305 308 306 303 296 261 231 238 256 268 280 267 201 191 183 175 178 201 228 217 218 264 268 279 302 302 305 323 63 70 26 354 319 178 142 130 40 48 147 181 171 174 198 180 163 160 155 159 167 183 224 242 235 219 199 184 185 179 155 137 133 190 185 216 235 206 207 236 247 235 188 156 285 294 299 299 298 297 296 297 295 291 291 292
298 303 303 308 316 318 319 311 219 212 228 246 264 293 106 181 203 193 184 182 183 293 218 212 242 261 295 303 278 295 18 54 97 110 281 250 200 151 137 94 327 235 204 174 165 185 188 169 149 162 194 182 185 218 228 214 199 186 172 176 171 140 117 103 231 218 230 248 248 252 253 219 176 170 220 261 282 297 300 301 301 299 296 296 296 296 293
305 308 307 323 334 336 336 234 208 216 227 243 264 281 152 199 222 198 192 192 199 252 240 267 258 239 256 275 265 305 22 45 146 138 283 271 277 99 128 140 220 245 183 154 207 213 188 160 149 185 209 195 207 228 212 185 186 190 184 189 188 158 152 188 214 231 272 293 284 285 282 191 183 202 236 255 272 288 293 298 302 301 299 300 301 299 294
303 301 313 349 348 338 297 239 230 230 218 192 169 182 201 200 114 166 186 199 225 241 230 299 273 241 231 257 269 327 20 307 226 44 266 240 243 241 123 130 227 253 214 216 229 206 164 159 176 202 216 212 225 237 202 175 180 186 175 169 161 148 161 190 197 207 303 313 307 301 292 235 204 208 235 261 275 284 294 302 303 301 305 308 305 299 294
300 289 274 34 14 320 241 244 259 262 218 193 201 242 216 164 96 118 165 187 224 219 188 222 261 252 211 244 260 286 53 298 355 22 275 259 268 276 72 104 206 241 271 262 226 151 122 188 213 219 241 245 246 246 219 184 173 166 156 154 156 159 175 196 191 184 234 284 291 291 294 279 247 231 238 257 271 277 290 301 300 299 305 306 299 295 295
248 225 190 156 198 268 309 315 300 275 223 207 219 254 164 142 148 192 170 170 207 208 178 211 243 227 196 229 253 245 118 109 7 296 251 259 320 230 230 52 329 278 283 265 218 133 136 253 239 231 257 255 229 225 216 183 163 164 158 156 166 175 184 200 205 200 208 224 223 219 234 244 235 232 239 247 260 274 287 298 304 306 307 305 302 300 301
209 227 238 195 183 294 342 341 305 229 216 206 193 183 185 179 174 170 173 188 207 197 180 203 232 221 200 219 250 241 177 167 169 218 226 217 168 225 239 253 173 145 248 257 236 144 170 245 236 233 251 240 209 204 197 171 166 175 168 163 182 198 201 206 208 201 206 216 210 213 233 231 213 210 232 243 248 272 288 301 314 317 313 311 313 312 310
216 229 258 280 288 302 311 306 269 232 240 257 204 196 225 232 216 200 199 222 237 217 184 171 212 267 225 207 218 231 208 188 167 171 205 216 233 226 218 206 158 147 238 253 243 160 175 235 247 248 246 226 192 182 176 165 166 178 182 183 189 191 186 179 171 169 182 232 225 236 261 241 214 214 229 240 248 272 289 301 316 321 319 318 317 315 316
227 259 291 302 300 297 294 276 228 215 234 341 296 284 253 232 237 238 204 219 260 250 182 152 167 244 242 216 198 215 209 174 110 67 307 236 200 171 183 179 88 275 253 246 225 105 254 243 245 256 252 220 177 165 163 166 171 177 183 182 164 146 144 148 159 183 213 233 229 240 274 273 237 234 238 243 258 282 299 307 314 319 322 324 322 320 325
253 274 292 304 299 278 238 193 197 195 114 75 5 281 273 261 268 332 266 269 287 296 249 150 140 244 255 246 228 220 192 145 116 102 226 235 214 102 15 20 139 225 239 223 134 113 221 220 234 253 252 202 169 168 169 172 172 171 174 171 155 144 145 154 170 203 238 251 227 232 345 2 326 271 248 248 267 291 305 312 317 321 326 330 328 327 335
268 264 279 298 255 182 163 289 239 176 137 220 204 209 277 304 342 48 301 294 299 271 239 208 138 178 259 243 156 154 237 178 89 84 226 250 281 72 246 243 235 235 247 238 143 223 235 234 247 253 227 156 156 176 173 163 163 166 170 167 157 152 156 163 165 154 97 81 86 78 22 1 356 329 255 247 266 293 303 311 322 328 332 335 334 337 345
44 128 74 5 317 285 94 17 267 216 230 238 201 168 289 296 258 219 239 250 250 258 256 228 174 192 248 248 122 156 228 139 76 102 226 31 13 287 225 230 245 293 351 328 305 283 274 278 284 276 134 111 117 209 193 171 168 168 162 159 161 159 158 158 151 135 130 132 129 108 348 339 351 352 270 242 248 274 295 307 321 331 337 341 343 345 350
117 172 111 92 282 269 142 144 263 244 229 205 159 146 203 247 237 235 237 227 235 267 273 257 218 209 225 217 137 226 209 112 89 286 103 82 3 249 217 168 19 9 1 321 303 280 253 249 256 242 163 144 171 216 208 178 164 159 152 156 168 169 160 153 150 146 147 155 165 162 325 321 336 350 325 230 236 259 295 312 323 332 338 341 344 348 353
271 271 107 114 273 274 225 210 221 214 188 176 180 187 202 223 241 254 246 227 239 265 274 268 249 229 210 178 155 230 265 93 81 296 76 104 251 275 355 63 310 239 173 240 262 257 246 240 236 220 196 185 198 212 202 178 168 167 162 163 169 171 165 156 149 149 152 157 157 126 343 315 325 344 359 230 233 250 290 324 338 346 348 347 349 354 359
242 266 136 158 231 242 223 221 245 276 229 209 219 229 224 203 285 269 247 230 240 257 256 251 284 316 300 150 127 145 262 30 38 276 273 98 15 330 353 340 284 263 190 207 232 243 248 243 229 215 206 205 213 211 196 185 183 179 171 168 172 173 167 155 149 154 161 163 163 176 258 305 317 327 334 292 241 241 266 330 353 359 359 358 358 1 5
258 320 193 201 243 259 253 267 314 318 289 276 292 295 273 262 276 272 259 253 272 263 240 208 138 117 275 271 104 104 230 264 198 283 13 50 60 280 292 300 294 291 267 236 234 244 253 246 223 205 205 217 223 213 195 189 192 184 174 174 177 172 162 153 152 158 163 165 169 190 249 310 311 312 320 315 256 240 248 302 0 8 8 8 8 8 11
230 216 212 214 247 280 287 307 322 305 289 295 297 270 242 257 281 281 261 259 296 315 334 14 73 108 271 319 42 34 299 245 158 80 29 311 229 220 234 257 255 250 250 251 250 254 263 256 222 205 210 213 207 184 175 193 211 199 179 177 177 169 157 152 154 160 166 168 173 189 236 287 302 313 324 328 234 227 240 281 10 19 21 20 19 18 20
222 246 237 211 211 242 268 287 278 262 268 292 290 262 224 236 268 267 256 322 9 19 14 334 299 31 30 27 40 320 268 246 77 74 234 232 199 154 202 250 253 250 259 269 265 258 255 243 215 204 214 216 201 168 177 205 221 206 181 178 179 168 155 152 158 166 170 170 172 184 211 242 312 339 356 96 156 168 167 33 35 33 31 28 26 28 30
207 246 258 237 223 228 236 242 247 244 242 260 268 247 199 219 255 259 19 59 56 53 251 247 97 69 60 293 238 289 13 27 24 308 265 257 214 187 217 250 263 263 266 271 269 265 260 243 211 196 203 212 217 220 216 220 223 209 189 186 184 169 153 154 164 171 172 172 175 177 177 187 4 21 48 99 137 152 117 54 59 50 44 39 35 37 40
Height
828 825 823 820 817 814 811 808 805 800 795 792 791 791 793 796 793 784 777 774 769 774 787 788 786 791 792 790 792 792 793 796 796 794 792 793 793 792 794 793 795 797 795 796 799 800 805 809 810 813 815 812 810 805 799 797 796 799 807 807 798 799 809 815 811 798 788 783 779 780 781 782 794 802 799 798 800 801 805 803 799 798 799 798 797 795 790
828 826 823 820 817 815 811 809 806 803 799 796 795 795 797 800 796 786 781 777 772 782 797 800 798 797 793 793 797 796 796 799 799 800 800 799 798 799 801 799 799 800 798 800 805 806 808 813 813 813 816 814 809 804 801 800 801 803 807 808 803 808 816 819 817 810 795 785 787 791 792 797 809 812 806 803 802 799 799 796 797 802 804 807 809 804 794
829 826 824 821 819 816 812 810 807 804 802 799 796 797 798 799 796 790 786 781 780 790 799 800 803 804 800 801 803 802 802 801 801 803 804 802 801 804 806 804 803 804 803 805 809 809 811 816 817 817 818 816 810 807 805 803 803 803 804 803 804 813 820 821 826 831 823 816 818 820 816 813 813 813 811 807 803 804 806 806 809 810 808 808 809 807 798
830 827 825 822 820 817 813 811 808 805 803 800 798 798 799 801 802 800 793 789 790 795 796 796 802 806 806 808 808 809 810 806 801 803 806 806 804 806 808 806 806 809 810 812 815 814 814 817 820 821 822 819 814 810 808 806 805 804 804 803 806 815 822 822 827 834 834 833 831 824 821 819 816 813 812 811 807 805 808 814 816 813 812 811 804 802 799
831 828 826 824 821 819 815 812 809 807 804 801 800 800 801 804 809 810 806 803 802 802 801 801 804 806 808 812 813 813 815 813 807 806 809 810 808 809 811 810 812 817 817 819 822 819 818 819 821 823 824 821 817 812 809 810 808 807 809 808 811 822 828 825 827 829 828 828 826 820 819 821 817 812 810 812 811 807 810 818 815 811 818 816 799 795 799
832 830 828 826 823 820 817 814 811 808 806 803 800 802 805 807 810 811 811 812 811 811 810 808 808 809 809 813 816 817 818 818 816 813 812 812 812 815 818 817 817 819 818 821 825 824 823 824 823 823 824 822 820 817 813 812 810 810 813 813 816 827 832 827 827 830 827 825 824 821 821 820 817 813 809 808 810 811 812 814 809 809 817 812 796 793 797
833 831 829 827 825 822 819 816 813 810 809 804 802 807 810 812 814 811 810 812 813 813 811 810 812 813 813 815 818 819 821 821 820 818 817 819 818 818 823 822 819 818 817 820 825 827 828 830 827 823 823 822 822 822 819 815 812 812 816 817 818 826 831 827 828 831 830 828 826 823 822 820 818 816 811 807 807 808 808 808 805 804 805 800 794 795 795
834 833 831 829 827 825 821 819 815 812 811 806 806 813 816 818 820 818 815 815 813 812 813 813 816 817 817 820 821 820 823 823 821 819 820 824 822 820 823 823 819 819 818 819 824 825 825 829 827 823 824 824 823 824 823 819 816 816 819 820 820 826 830 826 827 834 834 829 827 825 823 823 821 818 815 810 806 805 804 803 801 800 800 797 795 797 796
835 834 832 831 829 827 824 821 818 815 812 810 812 818 820 821 822 821 821 819 815 815 817 816 820 822 822 823 823 822 823 823 821 821 819 821 822 820 821 822 819 819 819 820 823 820 819 822 822 820 822 824 823 823 821 820 822 822 822 823 823 827 831 828 831 840 839 831 829 828 824 823 822 820 816 812 808 806 803 800 800 803 803 800 797 800 801
836 835 833 832 831 829 827 824 822 819 816 814 818 822 822 821 821 820 821 821 818 818 819 819 823 826 824 823 822 823 823 820 821 824 821 816 817 817 817 819 820 821 822 822 820 817 816 818 818 817 818 818 818 819 819 819 823 824 823 825 826 828 831 832 834 842 842 834 831 829 828 831 828 818 813 810 809 808 805 803 806 806 804 802 803 805 804
837 836 835 833 832 831 829 827 825 823 820 819 822 825 824 823 823 821 821 822 822 820 821 823 826 826 824 823 822 822 822 820 821 825 824 819 815 815 815 817 820 823 822 819 815 814 814 814 815 815 816 817 817 818 819 819 822 823 823 825 827 828 830 832 833 839 843 836 830 833 841 842 827 810 806 808 809 810 811 812 814 810 806 806 806 806 804
838 837 835 834 834 832 831 830 828 826 825 825 826 827 826 825 825 824 823 825 826 824 825 827 827 825 824 824 824 823 822 821 820 820 822 820 816 815 814 817 822 823 819 814 813 813 814 816 817 817 817 818 817 819 822 823 823 824 823 825 828 829 831 831 831 836 840 836 836 846 849 835 815 804 805 806 805 807 811 815 816 813 810 809 808 807 805
838 837 836 835 835 834 832 832 831 829 828 828 827 827 828 826 825 826 827 828 829 829 828 828 826 824 825 824 824 824 822 821 819 818 819 820 818 816 815 817 821 820 815 813 813 815 819 823 824 823 821 820 820 822 825 826 825 825 825 825 828 831 833 833 832 834 837 839 845 847 836 818 808 807 807 807 808 809 811 815 817 815 813 812 812 810 806
839 838 837 836 835 835 834 832 832 831 830 830 829 828 828 827 827 828 828 829 830 829 827 829 827 825 826 825 824 824 823 822 821 820 820 820 819 818 817 817 817 815 813 814 816 819 825 829 831 832 830 827 828 829 829 828 828 828 828 828 829 831 834 836 836 835 837 841 843 836 827 820 814 811 811 813 815 815 814 816 817 816 814 812 812 811 808
839 838 837 837 836 835 835 834 833 832 831 831 830 829 829 829 828 829 829 830 831 830 827 827 828 826 826 825 825 826 827 826 825 824 822 820 819 819 817 815 815 813 812 815 819 823 828 833 838 842 840 837 839 838 835 835 832 829 829 830 830 832 833 835 838 837 835 840 842 840 838 831 819 813 814 816 816 814 812 814 816 816 815 813 811 810 808
839 838 837 837 836 836 835 835 834 833 832 832 831 830 830 830 829 829 829 830 832 831 827 824 823 824 825 826 825 826 828 828 827 827 826 824 820 818 816 815 815 814 814 818 822 825 830 835 840 843 842 841 843 842 840 841 838 833 830 831 831 832 832 834 839 839 838 841 844 843 839 827 816 815 816 815 814 811 810 815 817 815 814 813 811 809 807
839 838 838 837 837 836 836 835 834 834 833 832 831 831 830 830 830 830 830 831 832 831 826 822 822 823 825 827 826 825 826 826 826 828 829 826 823 820 818 816 817 817 818 822 826 829 832 837 839 840 841 841 841 841 842 844 843 837 835 837 836 835 836 838 842 843 840 840 840 836 828 820 817 818 817 815 811 807 812 820 819 814 813 813 811 809 807
839 838 838 837 836 836 836 836 835 834 834 833 832 832 831 831 831 831 830 832 833 829 823 822 825 825 824 825 824 823 823 823 824 827 827 825 823 823 821 820 821 821 821 825 831 833 835 838 837 837 839 841 841 841 842 844 844 841 841 843 842 842 843 843 844 845 842 840 840 834 824 819 820 820 817 814 810 810 818 821 816 813 814 812 809 809 807
839 838 837 837 836 836 836 836 835 835 834 834 833 832 832 832 831 831 831 832 834 830 823 822 824 824 823 822 822 821 820 821 822 825 827 827 824 821 820 821 823 825 825 828 832 834 836 837 836 836 839 841 840 841 843 843 842 842 844 846 846 847 848 844 842 843 841 838 838 834 825 821 822 821 815 813 814 817 818 815 812 813 813 810 808 808 806
838 837 837 836 836 836 835 835 835 835 834 834 834 833 833 832 832 832 832 833 835 833 825 822 823 823 822 823 823 822 822 822 821 822 826 827 822 820 825 828 825 826 829 831 833 835 836 836 835 836 838 838 838 841 843 842 840 839 841 844 845 846 848 847 843 841 841 840 838 834 827 822 821 821 817 814 816 817 814 812 812 812 809 809 809 808 806
838 837 836 836 835 835 835 835 835 835 834 834 834 833 833 833 832 833 832 832 835 833 826 821 821 821 821 820 820 820 821 821 820 820 821 821 819 820 828 829 825 825 829 831 832 833 832 834 835 834 834 835 836 839 841 841 839 836 836 840 842 842 845 848 843 838 841 842 835 828 826 823 821 822 820 817 816 815 813 813 813 810 809 809 809 807 806
837 836 835 835 834 834 834 834 834 834 834 834 834 834 833 833 832 833 832 831 832 831 825 820 820 819 817 816 815 815 815 815 815 816 817 817 817 818 820 821 821 823 824 826 830 831 830 832 834 834 835 835 836 836 837 838 839 836 835 837 837 835 836 839 838 835 836 834 826 821 822 822 820 819 818 816 814 813 812 813 812 811 810 809 808 807 806
836 835 835 834 833 833 833 833 833 833 833 833 834 833 833 832 832 832 832 830 830 828 822 819 819 816 813 812 812 811 811 811 812 812 813 815 816 817 816 817 819 820 820 822 826 829 830 831 832 834 836 835 834 836 836 836 836 835 833 833 831 830 831 833 836 835 832 826 821 820 821 820 818 817 816 814 814 813 812 812 812 811 809 808 807 806 804
834 834 834 833 832 832 832 832 832 832 832 832 833 832 832 832 832 832 831 830 831 828 822 819 818 815 812 810 810 809 808 808 808 808 809 810 814 816 816 814 815 818 820 820 821 824 827 829 831 835 835 831 830 834 835 834 832 831 831 831 830 830 831 832 834 835 832 827 821 820 821 821 819 818 816 814 813 813 812 812 811 810 808 807 806 804 803
833 833 833 832 832 831 831 831 831 831 831 831 831 831 831 831 831 832 831 831 831 831 829 824 817 811 810 809 808 806 805 804 805 805 805 805 807 810 811 810 811 814 816 818 819 822 827 828 830 834 834 828 826 830 831 830 828 827 828 829 828 828 830 831 831 832 831 826 820 819 821 819 817 817 817 815 814 813 812 811 810 808 807 805 804 803 802
832 832 831 831 831 830 830 830 829 829 829 829 829 830 830 829 830 830 830 830 830 831 832 828 817 809 810 809 804 802 802 802 801 802 802 802 803 804 805 806 808 810 812 815 818 820 824 827 828 831 832 826 823 825 826 825 825 826 826 823 822 825 828 827 827 828 828 824 819 819 819 817 815 815 815 814 814 813 811 810 809 807 806 804 802 801 800
831 831 830 830 830 829 829 828 828 828 828 828 828 828 827 827 828 828 829 830 830 829 831 827 817 810 809 807 801 799 799 799 799 799 800 800 800 801 802 804 806 809 812 816 818 820 823 826 827 827 827 824 821 821 821 820 821 825 824 820 819 823 824 823 824 827 826 821 817 817 818 817 815 813 813 812 812 811 810 809 808 806 804 803 800 799 797
829 829 829 829 828 828 827 827 827 826 826 826 826 826 825 824 825 826 827 828 829 829 829 826 818 813 809 804 799 798 797 795 795 796 796 797 798 799 799 800 803 807 809 812 816 819 821 823 822 821 821 821 821 820 820 820 822 822 819 815 814 815 815 816 819 820 816 813 812 813 815 815 812 810 810 810 809 809 809 807 806 804 803 801 799 797 795
828 828 828 827 827 826 826 826 825 825 825 825 825 824 823 821 822 824 825 827 828 828 827 825 820 815 810 803 797 795 794 794 793 793 793 795 796 797 798 799 800 802 805 807 811 814 816 815 815 815 815 816 817 818 819 821 822 817 809 806 807 806 806 807 810 810 809 808 809 809 810 810 808 808 808 807 807 807 807 805 804 802 800 799 797 794 792
827 826 826 826 825 825 824 824 824 824 824 825 825 825 823 820 820 822 823 825 827 827 827 827 822 815 809 803 798 794 792 791 792 792 792 794 795 796 798 799 800 801 803 804 805 808 811 811 811 812 812 812 815 817 817 817 814 807 801 800 802 802 802 803 804 805 805 805 805 806 806 806 805 805 805 805 805 805 804 803 802 800 798 796 794 791 789
825 825 825 824 824 823 823 823 823 823 824 825 824 824 822 821 821 822 823 825 827 827 827 827 822 815 808 803 798 795 792 790 790 791 791 792 794 795 797 799 800 802 802 803 804 806 808 809 809 811 812 812 815 816 814 812 809 802 797 798 799 799 800 800 801 801 802 802 802 803 804 803 804 804 804 803 803 803 803 801 799 797 795 793 791 788 786
824 824 823 823 822 822 821 821 821 822 822 823 822 820 819 820 821 821 822 825 825 826 827 826 822 818 812 804 797 793 792 790 789 790 790 791 793 795 796 797 799 799 800 803 806 807 806 806 808 809 810 811 814 814 812 810 806 799 795 796 797 797 798 799 799 799 800 800 801 803 803 802 802 802 802 801 801 802 801 799 797 795 793 791 788 786 783
823 822 822 822 821 820 819 819 819 820 820 820 819 817 816 818 820 820 822 824 824 824 825 825 823 820 814 805 797 793 790 790 791 793 793 794 795 796 796 797 798 799 799 802 805 804 803 805 807 808 808 809 811 811 809 805 800 795 793 794 795 796 796 797 797 798 798 798 799 801 802 801 799 799 799 799 800 799 798 796 794 792 790 788 785 782 779
821 821 821 820 820 819 818 818 818 819 820 820 818 815 814 816 818 818 820 822 822 823 823 823 823 820 813 806 801 794 790 791 795 798 798 796 796 797 797 798 799 799 799 800 801 802 802 803 806 807 807 807 808 809 805 798 793 792 792 793 794 795 796 796 797 797 798 798 798 798 798 797 797 797 798 798 798 797 795 793 792 789 787 785 782 779 777
820 820 820 819 819 818 817 817 818 819 819 819 816 813 813 815 816 817 818 819 821 823 822 821 820 819 814 812 807 797 791 793 798 799 798 796 794 795 797 799 800 800 799 798 799 800 801 801 803 805 804 803 805 805 799 792 791 792 792 793 793 794 795 796 796 796 796 796 796 796 796 796 796 797 798 798 797 796 794 792 790 788 785 782 780 777 774
819 819 819 818 818 818 817 817 818 818 818 816 814 813 814 814 814 815 817 818 819 821 820 819 818 816 815 814 807 797 793 796 799 799 798 797 796 795 796 799 800 799 797 797 799 798 797 796 799 802 801 799 798 795 789 788 790 790 791 792 792 793 793 794 795 795 795 795 795 795 795 795 796 796 797 797 795 794 793 791 789 786 784 780 778 775 771
818 818 818 818 818 818 817 817 816 815 814 814 813 813 814 814 814 816 818 819 819 819 819 820 818 813 811 811 806 798 796 798 799 798 799 798 797 796 796 799 800 798 798 798 797 795 794 795 796 798 797 793 790 787 785 786 787 788 789 791 791 791 792 793 793 794 795 795 795 795 794 795 796 796 796 795 794 793 792 790 787 785 782 779 776 772 768
817 817 817 818 818 818 817 815 814 813 813 813 814 814 814 814 816 817 818 819 819 817 818 820 816 810 810 811 806 799 798 800 801 801 800 798 797 797 797 798 798 798 799 798 793 790 794 797 796 795 792 788 786 786 785 784 785 786 787 789 789 790 791 792 792 793 795 795 795 795 794 794 794 794 794 793 792 792 790 788 785 783 780 778 774 769 765
817 817 817 818 818 817 815 814 813 813 813 813 814 814 814 814 816 817 816 817 817 816 816 817 813 808 808 809 804 799 798 801 804 804 801 798 798 798 798 798 798 799 800 796 790 790 794 797 796 794 791 786 785 785 783 783 785 786 786 787 788 788 789 790 790 791 792 793 793 792 792 792 792 792 791 791 790 790 788 786 783 781 778 775 771 766 762
816 816 816 816 816 815 814 814 814 814 813 813 813 814 814 814 813 812 812 814 813 812 811 810 806 802 802 803 801 798 796 798 800 801 799 798 797 797 797 799 801 803 801 796 791 791 792 793 794 794 789 782 781 782 781 782 784 784 784 786 787 787 788 789 789 790 790 790 790 790 790 789 789 789 789 789 788 788 786 784 782 779 776 773 769 764 759
816 816 815 815 814 814 813 813 814 814 813 813 813 813 814 812 808 804 806 808 807 803 801 802 802 800 799 798 797 796 794 793 794 796 797 797 796 796 797 797 799 801 799 794 791 790 789 790 793 791 782 777 777 779 780 781 783 784 784 785 786 786 787 788 788 789 789 789 789 789 788 788 787 787 787 787 786 786 785 783 780 777 774 771 767 762 758
815 815 814 814 813 812 811 812 813 813 812 813 814 814 812 808 803 801 803 804 799 795 795 797 798 798 796 793 793 793 792 791 793 795 797 796 794 795 796 796 798 799 796 792 790 790 789 789 789 783 776 775 777 777 778 780 782 782 783 784 784 785 786 787 787 788 787 787 788 787 787 786 786 785 785 785 785 784 783 782 779 776 773 770 766 761 757
814 814 814 814 812 810 810 811 811 811 812 814 815 815 811 806 802 803 804 800 795 793 793 794 794 794 793 791 791 791 790 790 792 795 796 795 793 793 795 797 797 794 789 785 786 789 788 786 783 777 774 776 777 777 778 780 781 781 782 783 783 784 785 786 786 786 786 786 787 786 786 786 785 784 784 784 784 783 782 781 779 776 773 770 766 762 757
813 813 814 814 811 809 811 810 808 810 814 814 811 810 809 806 805 806 805 801 797 795 793 792 793 794 792 790 790 791 791 790 791 794 794 794 793 795 796 796 792 786 782 783 785 786 784 782 780 777 776 777 777 777 778 779 780 781 782 782 782 783 784 785 785 786 786 786 786 786 785 785 784 783 783 784 783 783 782 780 778 775 773 770 766 762 758
813 812 814 815 812 810 810 810 808 809 811 809 805 805 806 806 807 806 803 798 796 794 791 789 790 792 791 789 789 791 791 791 792 793 793 793 795 796 794 791 787 784 785 787 786 783 781 781 780 779 778 778 778 779 779 778 779 780 781 781 782 783 784 784 785 785 785 785 785 785 785 784 784 783 783 783 783 782 781 779 777 775 773 769 766 763 759
812 811 813 815 813 809 809 810 809 805 802 800 800 802 803 802 802 800 796 793 793 792 789 786 787 789 789 789 789 790 790 790 792 792 793 795 796 792 787 785 787 788 789 789 786 783 781 780 779 779 778 776 777 778 778 777 778 779 779 781 782 782 782 783 784 784 785 785 785 784 784 784 783 783 782 782 782 782 781 779 777 775 773 770 767 764 761
811 809 811 815 814 808 806 805 803 799 796 795 797 797 796 794 795 795 792 790 789 788 786 785 784 785 786 786 788 789 790 790 792 792 793 794 793 787 783 785 788 789 789 788 786 782 779 777 776 777 776 775 775 777 777 776 777 778 779 779 781 781 781 782 783 783 784 784 784 784 784 783 782 782 782 781 781 781 781 779 778 775 773 771 769 766 763
810 809 810 813 811 806 801 798 795 793 792 793 793 792 791 792 793 792 789 787 785 784 784 784 784 784 784 783 785 789 790 791 792 792 792 792 791 789 788 789 787 784 785 786 784 780 776 774 773 774 775 775 775 776 775 774 775 776 777 778 779 780 781 782 782 783 783 783 783 783 783 782 782 782 781 781 781 781 780 779 778 776 774 772 770 767 765
810 810 810 810 806 800 795 793 793 793 793 792 791 791 792 792 791 788 785 783 782 782 781 781 782 784 784 781 782 787 790 790 791 792 792 792 792 792 792 792 790 786 784 783 780 777 774 772 771 772 773 774 774 774 773 773 774 775 775 777 778 778 779 781 781 782 782 782 782 782 782 782 781 781 780 780 780 780 780 779 778 776 775 773 771 768 766
810 809 809 807 805 799 794 793 795 795 793 793 792 791 790 790 789 785 782 782 781 780 780 780 781 783 783 782 784 788 789 788 790 791 791 791 792 792 793 792 790 786 782 779 777 774 773 771 771 771 772 771 772 772 772 773 773 773 774 775 776 776 778 779 780 781 782 782 782 782 781 781 781 780 779 779 780 780 780 779 778 777 775 774 772 770 769
808 807 804 802 800 798 795 794 795 794 792 792 792 790 788 788 787 783 781 780 781 782 783 784 783 784 785 787 790 791 789 787 789 790 790 790 791 792 792 789 786 782 780 777 775 773 772 771 771 771 771 770 771 771 771 772 772 772 772 773 774 775 777 779 780 781 781 781 781 781 781 781 780 780 779 779 780 780 780 779 779 777 777 775 774 772 771
806 803 800 796 794 794 793 793 793 791 790 790 790 787 786 785 784 781 780 781 782 784 784 784 784 786 789 791 791 790 788 788 789 789 788 788 789 788 786 784 781 779 778 776 773 771 770 771 771 770 769 769 769 769 770 771 771 771 771 772 772 774 776 778 779 780 781 781 781 781 781 781 780 780 780 780 780 780 780 779 779 778 778 777 775 774 773